| time (UTC) | temp F | wind direction | speed MPH | gust MPH | rain 1hr in | rain 24hr in | rain mn in | humidity % | barometer mb |
| 20260508204505 | 62 | 248 | 5.0 | 18.0 | 0.00 | 0.00 | 0.00 | 21 | 1002.1 |
| 20260508204004 | 62 | 260 | 4.0 | 18.0 | 0.00 | 0.00 | 0.00 | 20 | 1002.0 |
| 20260508203005 | 63 | 254 | 6.0 | 18.0 | 0.00 | 0.00 | 0.00 | 20 | 1001.9 |
| 20260508202505 | 62 | 249 | 4.0 | 18.0 | 0.00 | 0.00 | 0.00 | 20 | 1001.8 |
| 20260508202004 | 63 | 262 | 7.0 | 17.0 | 0.00 | 0.00 | 0.00 | 21 | 1001.6 |
| 20260508201005 | 63 | 259 | 6.0 | 18.0 | 0.00 | 0.00 | 0.00 | 22 | 1001.3 |
| 20260508200005 | 63 | 260 | 7.0 | 17.0 | 0.00 | 0.00 | 0.00 | 22 | 1001.6 |
| 20260508195505 | 63 | 249 | 6.0 | 17.0 | 0.00 | 0.00 | 0.00 | 22 | 1001.6 |
| 20260508194504 | 63 | 276 | 3.0 | 16.0 | 0.00 | 0.00 | 0.00 | 24 | 1001.8 |
| 20260508194005 | 62 | 261 | 11.0 | 17.0 | 0.00 | 0.00 | 0.00 | 24 | 1001.8 |
| 20260508193504 | 63 | 252 | 6.0 | 17.0 | 0.00 | 0.00 | 0.00 | 25 | 1001.6 |
| 20260508193004 | 62 | 263 | 9.0 | 16.0 | 0.00 | 0.00 | 0.00 | 24 | 1001.7 |
| 20260508192504 | 63 | 266 | 8.0 | 17.0 | 0.00 | 0.00 | 0.00 | 24 | 1001.5 |
| 20260508191504 | 63 | 253 | 7.0 | 13.0 | 0.00 | 0.00 | 0.00 | 26 | 1002.0 |
| 20260508190504 | 62 | 274 | 4.0 | 17.0 | 0.00 | 0.00 | 0.00 | 27 | 1001.9 |
| 20260508190004 | 62 | 271 | 6.0 | 16.0 | 0.00 | 0.00 | 0.00 | 27 | 1002.0 |
| 20260508185004 | 63 | 275 | 4.0 | 16.0 | 0.00 | 0.00 | 0.00 | 28 | 1002.1 |
| 20260508184504 | 62 | 273 | 5.0 | 16.0 | 0.00 | 0.00 | 0.00 | 28 | 1002.2 |
| 20260508183504 | 61 | 270 | 8.0 | 18.0 | 0.00 | 0.00 | 0.00 | 30 | 1002.4 |
| 20260508183004 | 61 | 265 | 8.0 | 18.0 | 0.00 | 0.00 | 0.00 | 30 | 1002.3 |
| 20260508182504 | 61 | 272 | 8.0 | 21.0 | 0.00 | 0.00 | 0.00 | 30 | 1002.6 |
| 20260508181504 | 61 | 278 | 6.0 | 18.0 | 0.00 | 0.00 | 0.00 | 29 | 1002.6 |
| 20260508181004 | 61 | 280 | 10.0 | 16.0 | 0.00 | 0.00 | 0.00 | 30 | 1002.5 |
| 20260508180505 | 61 | 270 | 4.0 | 15.0 | 0.00 | 0.00 | 0.00 | 31 | 1002.7 |
| 20260508180005 | 61 | 270 | 8.0 | 15.0 | 0.00 | 0.00 | 0.00 | 30 | 1002.6 |
| 20260508175004 | 61 | 265 | 4.0 | 15.0 | 0.00 | 0.00 | 0.00 | 31 | 1002.7 |
| 20260508174505 | 60 | 256 | 8.0 | 15.0 | 0.00 | 0.00 | 0.00 | 31 | 1002.8 |
| 20260508174004 | 61 | 258 | 5.0 | 15.0 | 0.00 | 0.00 | 0.00 | 31 | 1002.8 |
| 20260508173504 | 61 | 270 | 8.0 | 21.0 | 0.00 | 0.00 | 0.00 | 31 | 1002.6 |
| 20260508173004 | 60 | 274 | 8.0 | 21.0 | 0.00 | 0.00 | 0.00 | 33 | 1002.7 |
| 20260508172504 | 60 | 266 | 10.0 | 16.0 | 0.00 | 0.00 | 0.00 | 33 | 1002.7 |
| 20260508171504 | 59 | 274 | 11.0 | 22.0 | 0.00 | 0.00 | 0.00 | 34 | 1003.1 |
| 20260508171004 | 61 | 259 | 6.0 | 14.0 | 0.00 | 0.00 | 0.00 | 34 | 1003.1 |
| 20260508170505 | 60 | 244 | 6.0 | 15.0 | 0.00 | 0.00 | 0.00 | 34 | 1003.2 |
| 20260508165504 | 60 | 253 | 5.0 | 16.0 | 0.00 | 0.00 | 0.00 | 35 | 1003.4 |
| 20260508165005 | 60 | 274 | 7.0 | 16.0 | 0.00 | 0.00 | 0.00 | 36 | 1003.4 |
| 20260508164504 | 59 | 284 | 6.0 | 16.0 | 0.00 | 0.01 | 0.00 | 35 | 1003.6 |
| 20260508164004 | 59 | 275 | 6.0 | 16.0 | 0.00 | 0.01 | 0.00 | 36 | 1003.7 |
| 20260508163004 | 58 | 282 | 7.0 | 18.0 | 0.00 | 0.02 | 0.00 | 36 | 1003.7 |
| 20260508162504 | 58 | 282 | 10.0 | 18.0 | 0.00 | 0.02 | 0.00 | 37 | 1003.9 |
| 20260508161504 | 59 | 255 | 6.0 | 18.0 | 0.00 | 0.02 | 0.00 | 38 | 1003.7 |
| 20260508161004 | 59 | 274 | 4.0 | 16.0 | 0.00 | 0.02 | 0.00 | 38 | 1004.0 |
| 20260508160505 | 58 | 256 | 12.0 | 16.0 | 0.00 | 0.02 | 0.00 | 38 | 1004.2 |
| 20260508160005 | 58 | 235 | 4.0 | 14.0 | 0.00 | 0.02 | 0.00 | 38 | 1004.0 |
| 20260508155504 | 59 | 270 | 6.0 | 16.0 | 0.00 | 0.02 | 0.00 | 38 | 1004.5 |
| 20260508155004 | 59 | 277 | 3.0 | 16.0 | 0.00 | 0.04 | 0.00 | 38 | 1004.4 |
| 20260508154504 | 57 | 267 | 9.0 | 16.0 | 0.00 | 0.05 | 0.00 | 39 | 1004.7 |
| 20260508154005 | 58 | 272 | 4.0 | 16.0 | 0.00 | 0.06 | 0.00 | 39 | 1004.5 |
| 20260508152504 | 57 | 256 | 6.0 | 18.0 | 0.00 | 0.08 | 0.00 | 39 | 1004.9 |
| 20260508152005 | 57 | 275 | 8.0 | 18.0 | 0.00 | 0.08 | 0.00 | 40 | 1005.0 |
| 20260508151505 | 56 | 277 | 7.0 | 21.0 | 0.00 | 0.08 | 0.00 | 40 | 1005.2 |
| 20260508151004 | 56 | 266 | 10.0 | 21.0 | 0.00 | 0.08 | 0.00 | 41 | 1005.2 |
| 20260508150504 | 57 | 258 | 6.0 | 16.0 | 0.00 | 0.08 | 0.00 | 41 | 1005.2 |
| 20260508150005 | 56 | 265 | 6.0 | 16.0 | 0.00 | 0.08 | 0.00 | 41 | 1005.3 |
| 20260508145505 | 56 | 263 | 6.0 | 16.0 | 0.00 | 0.08 | 0.00 | 42 | 1005.3 |
| 20260508145005 | 56 | 246 | 7.0 | 16.0 | 0.00 | 0.08 | 0.00 | 42 | 1005.4 |
| 20260508144504 | 56 | 228 | 8.0 | 16.0 | 0.00 | 0.08 | 0.00 | 42 | 1005.2 |
| 20260508144004 | 56 | 230 | 4.0 | 16.0 | 0.00 | 0.08 | 0.00 | 42 | 1005.3 |
| 20260508143505 | 55 | 251 | 8.0 | 16.0 | 0.00 | 0.08 | 0.00 | 42 | 1005.3 |
| 20260508143005 | 56 | 249 | 4.0 | 16.0 | 0.00 | 0.08 | 0.00 | 43 | 1005.3 |
| 20260508142504 | 55 | 241 | 6.0 | 17.0 | 0.00 | 0.08 | 0.00 | 43 | 1005.2 |
| 20260508142005 | 54 | 248 | 8.0 | 17.0 | 0.00 | 0.08 | 0.00 | 43 | 1005.3 |
| 20260508141505 | 55 | 242 | 6.0 | 16.0 | 0.00 | 0.08 | 0.00 | 43 | 1005.4 |
| 20260508141004 | 54 | 234 | 8.0 | 16.0 | 0.00 | 0.08 | 0.00 | 43 | 1005.4 |
| 20260508140504 | 55 | 240 | 4.0 | 13.0 | 0.00 | 0.08 | 0.00 | 43 | 1005.2 |
| 20260508140005 | 54 | 237 | 7.0 | 16.0 | 0.00 | 0.08 | 0.00 | 43 | 1005.3 |
| 20260508135505 | 54 | 232 | 5.0 | 18.0 | 0.00 | 0.09 | 0.00 | 43 | 1005.2 |
| 20260508135004 | 54 | 242 | 7.0 | 18.0 | 0.00 | 0.09 | 0.00 | 44 | 1005.5 |
| 20260508133005 | 53 | 252 | 9.0 | 16.0 | 0.00 | 0.09 | 0.00 | 45 | 1005.5 |
| 20260508132004 | 52 | 257 | 8.0 | 24.0 | 0.00 | 0.09 | 0.00 | 46 | 1005.2 |
| 20260508131505 | 52 | 266 | 8.0 | 16.0 | 0.00 | 0.09 | 0.00 | 47 | 1005.1 |
| 20260508131005 | 52 | 260 | 7.0 | 16.0 | 0.00 | 0.09 | 0.00 | 47 | 1005.2 |
| 20260508130504 | 51 | 251 | 8.0 | 20.0 | 0.00 | 0.09 | 0.00 | 48 | 1005.0 |
| 20260508130004 | 51 | 253 | 8.0 | 20.0 | 0.00 | 0.09 | 0.00 | 48 | 1005.1 |
| 20260508125504 | 51 | 259 | 4.0 | 18.0 | 0.00 | 0.09 | 0.00 | 48 | 1005.1 |
| 20260508125005 | 51 | 271 | 7.0 | 13.0 | 0.00 | 0.09 | 0.00 | 48 | 1005.2 |
| 20260508124504 | 51 | 273 | 4.0 | 15.0 | 0.00 | 0.09 | 0.00 | 49 | 1005.0 |
| 20260508124004 | 51 | 259 | 8.0 | 15.0 | 0.00 | 0.09 | 0.00 | 49 | 1005.1 |
| 20260508123505 | 50 | 246 | 4.0 | 15.0 | 0.00 | 0.09 | 0.00 | 50 | 1005.2 |
| 20260508122005 | 50 | 255 | 4.0 | 11.0 | 0.00 | 0.09 | 0.00 | 52 | 1004.8 |
| 20260508121505 | 49 | 271 | 4.0 | 13.0 | 0.00 | 0.09 | 0.00 | 54 | 1005.1 |
| 20260508121004 | 48 | 274 | 5.0 | 13.0 | 0.00 | 0.09 | 0.00 | 54 | 1005.0 |
| 20260508120504 | 48 | 267 | 3.0 | 17.0 | 0.00 | 0.09 | 0.00 | 55 | 1004.9 |
| 20260508120005 | 48 | 262 | 3.0 | 17.0 | 0.00 | 0.09 | 0.00 | 56 | 1004.9 |
| 20260508115505 | 48 | 273 | 8.0 | 14.0 | 0.00 | 0.09 | 0.00 | 56 | 1005.0 |
| 20260508115005 | 47 | 274 | 6.0 | 11.0 | 0.00 | 0.09 | 0.00 | 57 | 1004.8 |
| 20260508114005 | 48 | 279 | 4.0 | 14.0 | 0.00 | 0.09 | 0.00 | 56 | 1004.6 |
| 20260508113505 | 48 | 281 | 4.0 | 13.0 | 0.00 | 0.09 | 0.00 | 55 | 1004.3 |
| 20260508112004 | 48 | 270 | 4.0 | 13.0 | 0.00 | 0.09 | 0.00 | 56 | 1004.4 |
| 20260508111504 | 47 | 275 | 5.0 | 14.0 | 0.00 | 0.09 | 0.00 | 56 | 1004.0 |
| 20260508110504 | 48 | 284 | 6.0 | 14.0 | 0.00 | 0.09 | 0.00 | 55 | 1004.2 |
| 20260508110004 | 48 | 280 | 5.0 | 13.0 | 0.00 | 0.09 | 0.00 | 55 | 1004.0 |
| 20260508105005 | 48 | 274 | 4.0 | 11.0 | 0.00 | 0.09 | 0.00 | 54 | 1003.8 |
| 20260508104504 | 48 | 275 | 4.0 | 11.0 | 0.00 | 0.09 | 0.00 | 53 | 1003.6 |
| 20260508104004 | 48 | 277 | 3.0 | 14.0 | 0.00 | 0.09 | 0.00 | 52 | 1003.5 |
| 20260508103004 | 49 | 255 | 6.0 | 14.0 | 0.00 | 0.09 | 0.00 | 50 | 1003.3 |
| 20260508102504 | 49 | 249 | 4.0 | 27.0 | 0.00 | 0.09 | 0.00 | 50 | 1003.3 |
| 20260508102004 | 49 | 254 | 6.0 | 27.0 | 0.00 | 0.09 | 0.00 | 49 | 1003.0 |
| 20260508101504 | 49 | 257 | 7.0 | 20.0 | 0.00 | 0.09 | 0.00 | 49 | 1002.8 |
| 20260508101004 | 49 | 243 | 6.0 | 14.0 | 0.00 | 0.09 | 0.00 | 49 | 1002.8 |
| 20260508100504 | 49 | 248 | 7.0 | 14.0 | 0.00 | 0.09 | 0.00 | 49 | 1002.8 |
| 20260508100004 | 49 | 245 | 7.0 | 17.0 | 0.00 | 0.09 | 0.00 | 48 | 1002.8 |
| 20260508095004 | 49 | 253 | 4.0 | 15.0 | 0.00 | 0.09 | 0.00 | 49 | 1002.7 |
| 20260508094505 | 49 | 248 | 5.0 | 16.0 | 0.00 | 0.09 | 0.00 | 50 | 1002.6 |
| 20260508093504 | 49 | 259 | 7.0 | 18.0 | 0.00 | 0.09 | 0.00 | 51 | 1002.5 |
| 20260508093004 | 49 | 253 | 6.0 | 16.0 | 0.00 | 0.09 | 0.00 | 52 | 1002.7 |
| 20260508092504 | 49 | 245 | 7.0 | 16.0 | 0.00 | 0.09 | 0.00 | 52 | 1002.7 |
| 20260508092004 | 49 | 249 | 7.0 | 18.0 | 0.00 | 0.09 | 0.00 | 53 | 1002.7 |
| 20260508091504 | 49 | 249 | 9.0 | 20.0 | 0.00 | 0.09 | 0.00 | 54 | 1002.3 |
| 20260508091004 | 49 | 257 | 8.0 | 20.0 | 0.00 | 0.09 | 0.00 | 54 | 1002.1 |
| 20260508090504 | 49 | 269 | 7.0 | 17.0 | 0.00 | 0.11 | 0.00 | 55 | 1002.2 |
| 20260508085505 | 48 | 251 | 8.0 | 15.0 | 0.00 | 0.11 | 0.00 | 57 | 1001.8 |
| 20260508085005 | 48 | 255 | 4.0 | 17.0 | 0.00 | 0.11 | 0.00 | 57 | 1001.7 |
| 20260508084004 | 48 | 261 | 8.0 | 17.0 | 0.00 | 0.11 | 0.00 | 57 | 1001.7 |
| 20260508083505 | 48 | 269 | 5.0 | 14.0 | 0.00 | 0.11 | 0.00 | 58 | 1001.6 |
| 20260508083005 | 48 | 266 | 6.0 | 13.0 | 0.00 | 0.11 | 0.00 | 58 | 1001.5 |
| 20260508082505 | 49 | 262 | 6.0 | 13.0 | 0.00 | 0.11 | 0.00 | 58 | 1001.6 |
| 20260508082004 | 49 | 264 | 5.0 | 14.0 | 0.00 | 0.11 | 0.00 | 57 | 1001.5 |
| 20260508081505 | 49 | 262 | 6.0 | 14.0 | 0.00 | 0.11 | 0.00 | 57 | 1001.5 |
| 20260508081005 | 49 | 245 | 6.0 | 13.0 | 0.00 | 0.11 | 0.00 | 57 | 1001.6 |
| 20260508080505 | 49 | 237 | 4.0 | 13.0 | 0.00 | 0.11 | 0.00 | 57 | 1001.4 |
| 20260508080005 | 49 | 236 | 4.0 | 15.0 | 0.00 | 0.11 | 0.00 | 56 | 1001.5 |
| 20260508075504 | 49 | 236 | 3.0 | 15.0 | 0.00 | 0.11 | 0.00 | 56 | 1001.5 |
| 20260508075004 | 50 | 247 | 4.0 | 14.0 | 0.00 | 0.11 | 0.00 | 56 | 1001.4 |
| 20260508074505 | 50 | 229 | 5.0 | 14.0 | 0.00 | 0.14 | 0.00 | 56 | 1001.6 |
| 20260508074005 | 50 | 223 | 5.0 | 14.0 | 0.00 | 0.14 | 0.00 | 56 | 1001.3 |
| 20260508073504 | 50 | 242 | 3.0 | 14.0 | 0.00 | 0.14 | 0.00 | 58 | 1001.6 |
| 20260508073004 | 50 | 232 | 4.0 | 14.0 | 0.00 | 0.14 | 0.00 | 58 | 1001.5 |
| 20260508072505 | 50 | 223 | 5.0 | 14.0 | 0.00 | 0.15 | 0.00 | 58 | 1001.5 |
| 20260508072005 | 50 | 235 | 3.0 | 11.0 | 0.00 | 0.17 | 0.00 | 58 | 1001.5 |
| 20260508071005 | 50 | 250 | 5.0 | 11.0 | 0.00 | 0.19 | 0.00 | 59 | 1001.5 |
| 20260508070505 | 50 | 252 | 4.0 | 11.0 | 0.00 | 0.19 | 0.00 | 59 | 1001.5 |
| 20260508070006 | 51 | 246 | 6.0 | 11.0 | 0.00 | 0.19 | 0.00 | 58 | 1001.5 |
| 20260508065005 | 51 | 228 | 3.0 | 13.0 | 0.00 | 0.19 | 0.00 | 58 | 1001.3 |
| 20260508064505 | 51 | 230 | 5.0 | 13.0 | 0.00 | 0.19 | 0.00 | 57 | 1001.6 |
| 20260508064005 | 51 | 244 | 8.0 | 13.0 | 0.00 | 0.19 | 0.00 | 56 | 1001.6 |
| 20260508063505 | 51 | 252 | 7.0 | 13.0 | 0.00 | 0.19 | 0.00 | 56 | 1001.4 |
| 20260508063005 | 51 | 238 | 5.0 | 13.0 | 0.00 | 0.19 | 0.00 | 55 | 1001.4 |
| 20260508062504 | 51 | 228 | 8.0 | 16.0 | 0.00 | 0.19 | 0.00 | 55 | 1001.4 |
| 20260508062005 | 51 | 230 | 4.0 | 16.0 | 0.00 | 0.19 | 0.00 | 55 | 1001.2 |
| 20260508061505 | 51 | 231 | 6.0 | 15.0 | 0.00 | 0.19 | 0.00 | 54 | 1001.4 |
| 20260508061005 | 51 | 234 | 3.0 | 15.0 | 0.00 | 0.19 | 0.00 | 54 | 1001.5 |
| 20260508060005 | 52 | 253 | 5.0 | 11.0 | 0.00 | 0.19 | 0.00 | 53 | 1001.7 |
| 20260508055505 | 52 | 236 | 5.0 | 11.0 | 0.00 | 0.19 | 0.00 | 54 | 1001.7 |
| 20260508055005 | 52 | 243 | 3.0 | 13.0 | 0.00 | 0.19 | 0.00 | 55 | 1001.6 |
| 20260508054505 | 52 | 252 | 6.0 | 13.0 | 0.00 | 0.19 | 0.00 | 54 | 1001.8 |
| 20260508053004 | 51 | 262 | 3.0 | 8.0 | 0.00 | 0.19 | 0.00 | 58 | 1002.1 |
| 20260508052005 | 50 | 274 | 4.0 | 8.0 | 0.00 | 0.19 | 0.00 | 62 | 1002.3 |
| 20260508051504 | 50 | 274 | 4.0 | 8.0 | 0.00 | 0.19 | 0.00 | 63 | 1002.2 |
| 20260508051005 | 50 | 285 | 4.0 | 11.0 | 0.00 | 0.19 | 0.00 | 64 | 1002.1 |
| 20260508050505 | 49 | 296 | 4.0 | 11.0 | 0.00 | 0.19 | 0.00 | 66 | 1001.9 |
| 20260508050005 | 49 | 303 | 4.0 | 11.0 | 0.00 | 0.19 | 0.00 | 68 | 1002.0 |
| 20260508045505 | 49 | 310 | 4.0 | 11.0 | 0.00 | 0.19 | 0.00 | 70 | 1002.0 |
| 20260508045006 | 49 | 313 | 5.0 | 9.0 | 0.00 | 0.19 | 0.00 | 72 | 1001.9 |
| 20260508044505 | 49 | 313 | 5.0 | 9.0 | 0.00 | 0.19 | 0.00 | 71 | 1001.8 |
| 20260508044005 | 49 | 303 | 5.0 | 8.0 | 0.00 | 0.19 | 0.00 | 70 | 1001.7 |
| 20260508043505 | 50 | 294 | 4.0 | 9.0 | 0.00 | 0.19 | 0.00 | 67 | 1001.7 |
| 20260508043005 | 52 | 299 | 5.0 | 9.0 | 0.00 | 0.19 | 0.00 | 60 | 1001.7 |
| 20260508042504 | 52 | 297 | 6.0 | 11.0 | 0.00 | 0.19 | 0.00 | 60 | 1001.7 |
| 20260508042004 | 54 | 287 | 4.0 | 11.0 | 0.00 | 0.19 | 0.00 | 57 | 1001.7 |
| 20260508041505 | 55 | 281 | 5.0 | 11.0 | 0.00 | 0.19 | 0.00 | 54 | 1001.2 |
| 20260508041005 | 55 | 264 | 7.0 | 13.0 | 0.00 | 0.19 | 0.00 | 53 | 1001.0 |
| 20260508040505 | 56 | 233 | 3.0 | 13.0 | 0.00 | 0.19 | 0.00 | 54 | 1000.6 |
| 20260508040005 | 56 | 222 | 7.0 | 13.0 | 0.00 | 0.19 | 0.00 | 54 | 1000.6 |
| 20260508035504 | 55 | 215 | 3.0 | 13.0 | 0.00 | 0.19 | 0.00 | 54 | 1000.3 |
| 20260508035005 | 55 | 213 | 3.0 | 11.0 | 0.00 | 0.19 | 0.00 | 55 | 1000.0 |
| 20260508033505 | 54 | 263 | 5.0 | 14.0 | 0.00 | 0.19 | 0.00 | 57 | 1000.7 |
| 20260508033005 | 53 | 259 | 5.0 | 14.0 | 0.00 | 0.19 | 0.00 | 57 | 1000.7 |
| 20260508032505 | 53 | 250 | 7.0 | 13.0 | 0.00 | 0.19 | 0.00 | 57 | 1000.9 |
| 20260508032005 | 53 | 263 | 5.0 | 13.0 | 0.00 | 0.19 | 0.00 | 57 | 1000.9 |
| 20260508031505 | 53 | 269 | 3.0 | 9.0 | 0.00 | 0.19 | 0.00 | 58 | 1000.6 |
| 20260508030505 | 53 | 267 | 4.0 | 13.0 | 0.00 | 0.19 | 0.00 | 58 | 1000.8 |
| 20260508030006 | 53 | 270 | 6.0 | 13.0 | 0.00 | 0.19 | 0.00 | 58 | 1000.9 |
| 20260508025505 | 53 | 267 | 4.0 | 11.0 | 0.00 | 0.19 | 0.19 | 58 | 1001.0 |
| 20260508025004 | 54 | 268 | 2.0 | 13.0 | 0.00 | 0.19 | 0.19 | 58 | 1000.9 |
| 20260508024504 | 54 | 264 | 5.0 | 13.0 | 0.00 | 0.19 | 0.19 | 57 | 1001.1 |
| 20260508024004 | 55 | 260 | 4.0 | 14.0 | 0.00 | 0.19 | 0.19 | 55 | 1001.1 |
| 20260508023504 | 54 | 261 | 4.0 | 14.0 | 0.00 | 0.19 | 0.19 | 56 | 1001.1 |
| 20260508023004 | 54 | 256 | 4.0 | 13.0 | 0.00 | 0.19 | 0.19 | 56 | 1001.2 |
| 20260508022505 | 55 | 250 | 5.0 | 13.0 | 0.00 | 0.19 | 0.19 | 55 | 1001.2 |
| 20260508022004 | 54 | 260 | 4.0 | 11.0 | 0.00 | 0.19 | 0.19 | 56 | 1001.0 |
| 20260508021504 | 54 | 264 | 5.0 | 11.0 | 0.00 | 0.19 | 0.19 | 57 | 1001.0 |
| 20260508021004 | 54 | 261 | 2.0 | 14.0 | 0.00 | 0.19 | 0.19 | 57 | 1001.2 |
| 20260508020004 | 55 | 265 | 4.0 | 13.0 | 0.00 | 0.19 | 0.19 | 57 | 1001.4 |
| 20260508015504 | 55 | 263 | 4.0 | 11.0 | 0.00 | 0.19 | 0.19 | 57 | 1000.8 |
| 20260508015004 | 54 | 260 | 6.0 | 11.0 | 0.00 | 0.19 | 0.19 | 58 | 1001.2 |
| 20260508014505 | 54 | 260 | 4.0 | 11.0 | 0.00 | 0.19 | 0.19 | 59 | 1000.9 |
| 20260508013504 | 55 | 264 | 4.0 | 13.0 | 0.00 | 0.19 | 0.19 | 59 | 1001.0 |
| 20260508013005 | 55 | 267 | 7.0 | 11.0 | 0.00 | 0.19 | 0.19 | 59 | 1001.1 |
| 20260508012505 | 55 | 270 | 7.0 | 13.0 | 0.00 | 0.19 | 0.19 | 59 | 1000.8 |
| 20260508012005 | 55 | 273 | 4.0 | 13.0 | 0.00 | 0.19 | 0.19 | 60 | 1000.6 |
| 20260508011504 | 55 | 279 | 4.0 | 11.0 | 0.00 | 0.19 | 0.19 | 61 | 1000.5 |
| 20260508011004 | 55 | 283 | 5.0 | 11.0 | 0.00 | 0.19 | 0.19 | 62 | 1000.4 |
| 20260508010504 | 55 | 279 | 4.0 | 9.0 | 0.00 | 0.19 | 0.19 | 62 | 1000.6 |
| 20260508005505 | 55 | 281 | 6.0 | 11.0 | 0.00 | 0.19 | 0.19 | 62 | 1000.6 |
| 20260508005004 | 56 | 273 | 4.0 | 11.0 | 0.00 | 0.19 | 0.19 | 62 | 1000.6 |
| 20260508004504 | 56 | 273 | 2.0 | 11.0 | 0.00 | 0.19 | 0.19 | 63 | 1000.4 |
| 20260508004004 | 56 | 270 | 3.0 | 11.0 | 0.00 | 0.19 | 0.19 | 62 | 1000.5 |
| 20260508003505 | 56 | 273 | 4.0 | 8.0 | 0.00 | 0.19 | 0.19 | 61 | 1000.5 |
| 20260508003005 | 56 | 262 | 3.0 | 11.0 | 0.00 | 0.19 | 0.19 | 61 | 1000.4 |
| 20260508002504 | 56 | 261 | 4.0 | 11.0 | 0.00 | 0.19 | 0.19 | 61 | 1000.2 |
| 20260508002004 | 56 | 271 | 4.0 | 11.0 | 0.00 | 0.19 | 0.19 | 62 | 1000.3 |
| 20260508001504 | 57 | 264 | 5.0 | 8.0 | 0.00 | 0.19 | 0.19 | 61 | 1000.1 |
| 20260508001004 | 57 | 246 | 4.0 | 11.0 | 0.00 | 0.19 | 0.19 | 61 | 1000.3 |
| 20260508000004 | 57 | 267 | 3.0 | 11.0 | 0.00 | 0.19 | 0.19 | 60 | 1000.2 |
| 20260507235505 | 58 | 268 | 4.0 | 11.0 | 0.00 | 0.19 | 0.19 | 60 | 1000.1 |
| 20260507235004 | 58 | 260 | 4.0 | 9.0 | 0.00 | 0.19 | 0.19 | 60 | 1000.1 |
| 20260507234504 | 58 | 259 | 4.0 | 9.0 | 0.00 | 0.19 | 0.19 | 59 | 1000.1 |
| 20260507234004 | 58 | 257 | 5.0 | 9.0 | 0.00 | 0.19 | 0.19 | 59 | 1000.3 |
| 20260507233505 | 58 | 257 | 4.0 | 9.0 | 0.00 | 0.19 | 0.19 | 59 | 1000.3 |
| 20260507232504 | 58 | 255 | 2.0 | 9.0 | 0.00 | 0.19 | 0.19 | 59 | 1000.5 |
| 20260507232005 | 59 | 249 | 4.0 | 9.0 | 0.00 | 0.19 | 0.19 | 59 | 1000.5 |
| 20260507231505 | 59 | 236 | 3.0 | 6.0 | 0.00 | 0.19 | 0.19 | 59 | 1000.4 |
| 20260507230504 | 59 | 260 | 4.0 | 11.0 | 0.00 | 0.19 | 0.19 | 57 | 1000.6 |
| 20260507230005 | 59 | 265 | 4.0 | 11.0 | 0.00 | 0.19 | 0.19 | 57 | 1000.3 |
| 20260507225004 | 59 | 264 | 2.0 | 8.0 | 0.00 | 0.19 | 0.19 | 58 | 1000.3 |
| 20260507223504 | 60 | 254 | 4.0 | 8.0 | 0.00 | 0.19 | 0.19 | 58 | 999.9 |
| 20260507222505 | 60 | 266 | 2.0 | 7.0 | 0.00 | 0.19 | 0.19 | 59 | 1000.0 |
| 20260507222004 | 60 | 265 | 4.0 | 7.0 | 0.00 | 0.19 | 0.19 | 59 | 999.7 |
| 20260507221504 | 60 | 260 | 4.0 | 7.0 | 0.00 | 0.19 | 0.19 | 59 | 999.7 |
| 20260507221004 | 60 | 266 | 2.0 | 11.0 | 0.00 | 0.19 | 0.19 | 60 | 999.6 |
| 20260507220505 | 60 | 270 | 2.0 | 11.0 | 0.00 | 0.19 | 0.19 | 60 | 999.7 |
| 20260507220004 | 60 | 264 | 3.0 | 7.0 | 0.00 | 0.19 | 0.19 | 60 | 999.6 |
| 20260507215504 | 60 | 267 | 3.0 | 7.0 | 0.00 | 0.19 | 0.19 | 61 | 999.3 |
| 20260507215005 | 60 | 273 | 3.0 | 7.0 | 0.00 | 0.19 | 0.19 | 63 | 999.2 |
| 20260507213004 | 59 | 296 | 3.0 | 6.0 | 0.00 | 0.19 | 0.19 | 67 | 999.2 |
| 20260507212505 | 59 | 296 | 4.0 | 6.0 | 0.00 | 0.19 | 0.19 | 67 | 999.2 |
| 20260507212005 | 59 | 292 | 2.0 | 6.0 | 0.00 | 0.19 | 0.19 | 67 | 998.9 |
| 20260507211504 | 60 | 292 | 2.0 | 6.0 | 0.00 | 0.19 | 0.19 | 65 | 998.9 |
| 20260507211005 | 60 | 286 | 4.0 | 6.0 | 0.00 | 0.19 | 0.19 | 63 | 999.1 |
| 20260507210505 | 61 | 285 | 3.0 | 7.0 | 0.00 | 0.19 | 0.19 | 61 | 998.8 |
| 20260507210005 | 61 | 277 | 3.0 | 7.0 | 0.00 | 0.19 | 0.19 | 60 | 998.9 |
| 20260507205505 | 61 | 254 | 3.0 | 6.0 | 0.00 | 0.19 | 0.19 | 59 | 999.1 |
| 20260507205005 | 61 | 239 | 3.0 | 6.0 | 0.00 | 0.19 | 0.19 | 58 | 998.7 |